Logan, UT

11:38 AM MST on February 07, 2016 (GMT -0700)
Logan-Cache

Weather History for KLGU - September, 2012

Change the Weather History Date:

Tuesday, September 11, 2012

  Actual Average Record
Temperature  
Mean Temperature 66 °F -  
Max Temperature 81 °F 77 °F 99 °F (1958)
Min Temperature 54 °F 45 °F 34 °F (1989)
Cooling Degree Days 2    
Growing Degree Days 16 (Base 50)    
Moisture  
Dew Point 39 °F    
Average Humidity 42    
Maximum Humidity 77    
Minimum Humidity 17    
Precipitation  
Precipitation 0.00 in - - ()
Sea Level Pressure  
Sea Level Pressure 29.92 in    
Wind  
Wind Speed 5 mph (North)    
Max Wind Speed 14 mph    
Max Gust Speed -    
Visibility 10 miles    
Events      
Averages and records for this station are not official NWS values.
T = Trace of Precipitation, MM = Missing Value Source: NWS Daily Summary

Daily Weather History Graph

Daily Weather History Graph

Search for Another Location

Airport or City:

Trip Planner

Search our weather history database for the weather conditions in past years. The results will help you decide how hot, cold, wet, or windy it might be!

Date:

Astronomy

Sep. 11, 2012 Rise Set
Actual Time 7:04 AM MDT 7:42 PM MDT
Civil Twilight 6:35 AM MDT 8:10 PM MDT
Nautical Twilight 6:02 AM MDT 8:43 PM MDT
Astronomical Twilight 5:28 AM MDT 9:18 PM MDT
Moon 2:21 AM MDT (9/11) 4:58 PM MDT (9/11)
Length of Visible Light 13h 34m
Length of Day
12h 38m
Waning Crescent, 21% of the Moon is Illuminated
Sep 11
Waning Crescent
Sep 15
New
Sep 22
First Quarter
Sep 29
Full
Oct 8
Last Quarter

Hourly Weather History & Observations

Time (MDT) Temp. Dew Point Humidity Pressure Visibility Wind Dir Wind Speed Gust Speed Precip Events Conditions
12:51 AM 64.9 °F 48.9 °F 56% 29.83 in 10.0 mi ENE 4.6 mph - N/A   Clear
1:51 AM 63.0 °F 48.0 °F 58% 29.84 in 10.0 mi SSW 3.5 mph - N/A   Clear
2:51 AM 60.1 °F 48.0 °F 64% 29.87 in 10.0 mi Calm Calm - N/A   Scattered Clouds
3:51 AM 59.0 °F 48.9 °F 69% 29.86 in 10.0 mi NE 3.5 mph - N/A   Partly Cloudy
4:51 AM 55.9 °F 48.9 °F 77% 29.86 in 10.0 mi WNW 6.9 mph - N/A   Scattered Clouds
6:51 AM 55.9 °F 44.1 °F 64% 29.88 in 10.0 mi North 4.6 mph - N/A   Clear
7:51 AM 54.0 °F 44.1 °F 69% 29.91 in 10.0 mi SW 3.5 mph - N/A   Scattered Clouds
9:51 AM 63.0 °F 44.1 °F 50% 29.94 in 10.0 mi SSW 4.6 mph - N/A   Overcast
10:51 AM 64.9 °F 43.0 °F 45% 29.95 in 10.0 mi Calm Calm - N/A   Scattered Clouds
11:51 AM 69.1 °F 42.1 °F 38% 29.94 in 10.0 mi Calm Calm - N/A   Mostly Cloudy
12:51 PM 72.0 °F 34.0 °F 25% 29.93 in 10.0 mi Variable 4.6 mph - N/A   Mostly Cloudy
1:51 PM 75.9 °F 33.1 °F 21% 29.91 in 10.0 mi North 6.9 mph - N/A   Clear
2:51 PM 78.1 °F 34.0 °F 20% 29.90 in 10.0 mi North 6.9 mph - N/A   Clear
3:51 PM 79.0 °F 34.0 °F 20% 29.88 in 10.0 mi NNE 8.1 mph - N/A   Clear
4:51 PM 79.0 °F 30.0 °F 17% 29.89 in 10.0 mi North 13.8 mph - N/A   Clear
5:51 PM 78.1 °F 28.9 °F 17% 29.90 in 10.0 mi North 10.4 mph - N/A   Clear
6:51 PM 69.1 °F 37.0 °F 31% 29.93 in 10.0 mi NNW 6.9 mph - N/A   Clear
7:51 PM 63.0 °F 36.0 °F 37% 29.96 in 10.0 mi North 3.5 mph - N/A   Clear
8:51 PM 57.9 °F 32.0 °F 37% 30.00 in 10.0 mi North 11.5 mph - N/A   Clear
9:51 PM 54.0 °F 30.9 °F 41% 30.03 in 10.0 mi North 11.5 mph - N/A   Clear
10:51 PM 55.9 °F 28.9 °F 36% 30.04 in 10.0 mi Variable 3.5 mph - N/A   Clear
11:51 PM 55.9 °F 28.9 °F 36% 30.05 in 10.0 mi South 3.5 mph - N/A   Clear